Deer Park, WA
on Monday, November 26, 2012

Monday
Previous Day Next Day
Daily Summary
 ActualAverageRecord
Temperature
Mean Temperature °F 30°F  
Max Temperature 39°F 37°F 43°F (1999)
Min Temperature 18°F 24°F 10°F (2003)
Degree Days
Heating Degree Days 36 35  
Month to date heating degree days 713 793  
Since 1 July heating degree days 1625 1861  
Cooling Degree Days 0 0  
Month to date cooling degree days 0 0  
Year to date cooling degree days 232 187  
Moisture
Dew Point 24°F   
Average Humidity 82    
Maximum Humidity 100    
Minimum Humidity 64    
Precipitation
Precipitation 0.00 in 0.11 in 0.42 in (2006)
Month to date precipitation 3.55 2.84  
Year to date precipitation 23.55 18.90  
Wind
Wind Speed 4 mph   
Max Wind Speed 13 mph   
Max Gust Speed 15 mph   
Visibility 10 miles   
Events     

Key: T is trace of precipitation, MM is missing value
Source: NWS Daily Summary
Time(PST)TemperatureDew PointHumidity Pressure Visibility Wind DirectionWind SpeedGust SpeedPrecipitationEvents Conditions
12:53 AM 25.0°F 23.0°F 92% 30.39 in 10.0 miles Calm Calm - N/A   Clear
1:53 AM 19.9°F 18.0°F 92% 30.40 in 10.0 miles Calm Calm - N/A   Clear
2:53 AM 19.9°F 18.0°F 92% 30.39 in 10.0 miles Calm Calm - N/A   Clear
3:53 AM 21.0°F 19.0°F 92% 30.37 in 10.0 miles Calm Calm - N/A   Clear
4:53 AM 19.0°F 17.1°F 92% 30.38 in 10.0 miles Calm Calm - N/A   Clear
5:53 AM 19.9°F 18.0°F 92% 30.38 in 10.0 miles Calm Calm - N/A   Clear
6:53 AM 28.0°F 26.1°F 92% 30.36 in 10.0 miles NNE 6.9 mph - N/A   Clear
7:53 AM 27.0°F 25.0°F 92% 30.36 in 10.0 miles North 5.8 mph - N/A   Clear
8:53 AM 30.9°F 28.9°F 92% 30.35 in 10.0 miles Calm Calm - N/A   Clear
9:53 AM 34.0°F 30.0°F 85% 30.34 in 10.0 miles NNE 8.1 mph - N/A   Clear
10:53 AM 36.0°F 28.9°F 76% 30.31 in 10.0 miles NE 9.2 mph - N/A   Clear
11:53 AM 37.9°F 28.9°F 70% 30.29 in 10.0 miles NNE 8.1 mph - N/A   Clear
12:53 PM 37.9°F 27.0°F 65% 30.27 in 10.0 miles NNE 10.4 mph - N/A   Clear
1:53 PM 37.9°F 27.0°F 65% 30.27 in 10.0 miles NE 5.8 mph - N/A   Clear
2:53 PM 37.0°F 28.0°F 70% 30.25 in 10.0 miles NNE 4.6 mph - N/A   Clear
3:53 PM 33.1°F 26.1°F 75% 30.26 in 10.0 miles North 4.6 mph - N/A   Clear
4:53 PM 26.1°F 24.1°F 92% 30.26 in 10.0 miles NW 4.6 mph - N/A   Clear
5:53 PM 25.0°F 23.0°F 92% 30.28 in 10.0 miles NW 5.8 mph - N/A   Clear
6:53 PM 25.0°F 24.1°F 96% 30.25 in 10.0 miles NNW 4.6 mph - N/A   Clear
7:53 PM 24.1°F 21.9°F 91% 30.26 in 10.0 miles NW 4.6 mph - N/A   Clear
8:53 PM 21.9°F 21.0°F 96% 30.27 in 10.0 miles NW 3.5 mph - N/A   Partly Cloudy
9:53 PM 23.0°F 21.9°F 96% 30.28 in 10.0 miles NNW 3.5 mph - N/A   Partly Cloudy
10:53 PM 23.0°F 21.9°F 96% 30.27 in 10.0 miles Calm Calm - N/A   Overcast
11:53 PM 27.0°F 25.0°F 92% 30.26 in 10.0 miles Calm Calm - N/A   Overcast
Moon Phase
Nov. 26 Nov. 28 Dec. 06 Dec. 13 Dec. 20
Sunrise:07:12 AM (PST) Moon Rise:03:00 PM (PST)11/26
Sunset:04:01 PM (PST) Moon Set:05:22 AM (PST)11/26

Copyright © 2014 The Weather Underground, Inc.